Quincy, IL

12:31 PM CST on November 22, 2019 (GMT -0600)
Quincy Regional-Baldwin

Weather History for KUIN - October, 2019

Change the Weather History Date:

Tuesday, October 22, 2019

  Actual Average Record
Temperature  
Mean Temperature 48 °F 53 °F  
Max Temperature 57 °F 63 °F 85 °F (1963)
Min Temperature 39 °F 43 °F 25 °F (1976)
Degree Days  
Heating Degree Days 17 12  
Month to date heating degree days 212 209  
Since 1 July heating degree days 216 296  
Cooling Degree Days 0 0  
Month to date cooling degree days 28 14  
Year to date cooling degree days 1346 1090  
Moisture  
Dew Point 35 °F    
Average Humidity 58    
Maximum Humidity 71    
Minimum Humidity 35    
Precipitation  
Precipitation 0.00 in 0.10 in 1.53 in (1912)
Month to date precipitation 1.72 2.15  
Year to date precipitation 37.81 31.20  
Sea Level Pressure  
Sea Level Pressure 29.81 in    
Wind  
Wind Speed 15 mph ()    
Max Wind Speed 26 mph    
Max Gust Speed 40 mph    
Visibility 10.0 miles    
Events      
T = Trace of Precipitation, MM = Missing Value Source: Averaged Metar Reports

Daily Weather History Graph

Daily Weather History Graph

Search for Another Location

Airport or City:

Astronomy

Oct. 22, 2019 Rise Set
Actual Time 7:22 AM CDT 6:15 PM CDT
Civil Twilight 6:54 AM CDT 6:42 PM CDT
Nautical Twilight 6:23 AM CDT 7:14 PM CDT
Astronomical Twilight 5:51 AM CDT 7:45 PM CDT
Moon 12:32 AM CDT 3:24 PM CDT
Length of Visible Light 11h 48m
Length of Day
10h 53m
Last Quarter, 37% of the Moon is Illuminated
Oct 22
Last Quarter
Oct 27
New
Nov 4
First Quarter
Nov 12
Full
Nov 19
Last Quarter

Hourly Weather History & Observations

Time (CDT) Temp. Windchill Dew Point Humidity Pressure Visibility Wind Dir Wind Speed Gust Speed Precip Events Conditions
12:54 AM 51.1 °F - 39.0 °F 63% 29.66 in 10.0 mi WSW 16.1 mph 31.1 mph N/A   Scattered Clouds
1:54 AM 51.1 °F - 39.0 °F 63% 29.67 in 10.0 mi West 20.7 mph 40.3 mph N/A   Overcast
2:54 AM 50.0 °F - 39.0 °F 66% 29.68 in 10.0 mi WSW 20.7 mph 34.5 mph N/A   Overcast
3:54 AM 50.0 °F - 39.0 °F 66% 29.69 in 10.0 mi WSW 17.3 mph 26.5 mph N/A   Overcast
4:54 AM 50.0 °F - 39.0 °F 66% 29.70 in 10.0 mi WSW 18.4 mph 26.5 mph N/A   Overcast
5:54 AM 48.9 °F - 39.0 °F 69% 29.72 in 10.0 mi WSW 19.6 mph 29.9 mph N/A   Overcast
6:54 AM 48.0 °F - 37.9 °F 68% 29.73 in 10.0 mi West 13.8 mph 23.0 mph N/A   Overcast
7:54 AM 46.9 °F - 37.9 °F 71% 29.75 in 10.0 mi West 19.6 mph 27.6 mph N/A   Overcast
8:54 AM 46.9 °F - 37.0 °F 68% 29.78 in 10.0 mi West 19.6 mph 28.8 mph N/A   Overcast
9:54 AM 48.9 °F - 37.0 °F 64% 29.80 in 10.0 mi West 17.3 mph 29.9 mph N/A   Scattered Clouds
10:07 AM 48.9 °F - 37.0 °F 64% 29.80 in 10.0 mi West 21.9 mph 33.4 mph N/A   Mostly Cloudy
10:37 AM 48.9 °F - 36.0 °F 61% 29.81 in 10.0 mi West 21.9 mph 34.5 mph N/A   Scattered Clouds
10:54 AM 51.1 °F - 37.0 °F 59% 29.82 in 10.0 mi West 17.3 mph 28.8 mph N/A   Mostly Cloudy
11:54 AM 53.1 °F - 37.0 °F 55% 29.83 in 10.0 mi West 21.9 mph 31.1 mph N/A   Clear
12:54 PM 55.0 °F - 37.0 °F 51% 29.82 in 10.0 mi WSW 25.3 mph 33.4 mph N/A   Clear
1:54 PM 55.9 °F - 37.0 °F 49% 29.81 in 10.0 mi WSW 16.1 mph 28.8 mph N/A   Partly Cloudy
2:54 PM 55.9 °F - 34.0 °F 44% 29.83 in 10.0 mi West 20.7 mph 34.5 mph N/A   Clear
3:54 PM 55.9 °F - 30.9 °F 39% 29.85 in 10.0 mi West 16.1 mph 33.4 mph N/A   Clear
4:54 PM 55.0 °F - 28.0 °F 35% 29.87 in 10.0 mi West 19.6 mph 29.9 mph N/A   Clear
5:54 PM 53.1 °F - 27.0 °F 37% 29.89 in 10.0 mi West 16.1 mph 26.5 mph N/A   Clear
6:54 PM 50.0 °F - 28.0 °F 43% 29.92 in 10.0 mi West 10.4 mph - N/A   Clear
7:54 PM 46.9 °F - 30.0 °F 52% 29.94 in 10.0 mi WSW 8.1 mph - N/A   Clear
8:54 PM 45.0 °F 41.2 °F 30.0 °F 56% 29.95 in 10.0 mi WSW 6.9 mph - N/A   Clear
9:54 PM 39.9 °F 34.5 °F 30.9 °F 70% 29.95 in 10.0 mi SSW 8.1 mph - N/A   Clear
10:54 PM 41.0 °F 36.4 °F 30.9 °F 67% 29.95 in 10.0 mi SW 6.9 mph - N/A   Clear
11:54 PM 39.9 °F 35.1 °F 30.9 °F 70% 29.94 in 10.0 mi SSW 6.9 mph - N/A   Clear